Find Starlink 34425

NORAD ID: 64350 Int'l Des: 2025-126 Owner: SPXS Country: US Constellation: starlink operational
LEOCIRCULAR

現在のビュー

3D地球を読み込み中...

About Starlink 34425

Starlink 34425 (NORAD 64350) is a starlink constellation satellite (v2 mini) launched Jun 13, 2025 by SPXS of US. It operates in LEO, CIRCULAR orbit with a mass of 575.00 kg.

Starlink 34425について

説明を読み込み中...

次回通過

Passes for default location (London). Set your location on the main map for personalized predictions.

高度履歴

Loading altitude history...

軌道要素

1 64350U 25126G 26159.43775029 .00001783 00000-0 15719-3 0 9999
2 64350 70.0003 165.7033 0003940 269.8020 90.2687 14.98331406 54277
Epoch: Jun 8, 2026 • Age: 21 hours

現在のステータス

高度 585.2 km
速度 7.57 km/s
衛星直下点 -40.63°S, 140.66°E
打ち上げ日 Jun 13, 2025
運用期間 0.9 years
タイプ internet

技術仕様

分類 Payload
質量 575.00 kg
乾燥質量 530.00 kg
総質量 575.00 kg
長さ 0.30 m
直径 4.10 m
スパン 29.00 m
形状 Box + pan
製造者 SPXS
バスタイプ Starlink V2MO
フェーズステータス In Orbit
所有者/国 SPXS/US

Most Searched